Simultaneous Nadir Overpasses (SNOs) Predictions

Prediction of SNOs between METOP-A and NOAA-19 Satellite Orbit:

Table of predicted SNOs for the next 14.0 days since TLE Epoch: 10/29/2016
Index Date (METOP-A) Time (METOP-A) Lat,Lon (METOP-A) SZA (METOP-A ) Date (NOAA-19) Time (NOAA-19) Lat,Lon (NOAA-19) SZA (NOAA-19 ) Distance(km) Time Diff (sec)
1 11/06/2016 04:55:32 -76.89, -70.64 86.98 11/06/2016 04:54:23 -76.89, -73.09 87.05 61.67 69
2 11/06/2016 05:46:19 76.58, 95.48 92.69 11/06/2016 05:45:23 76.60, 95.36 92.70 3.42 56
3 11/06/2016 06:37:01 -76.56, -97.26 87.32 11/06/2016 06:36:17 -76.55, -97.20 87.33 2.03 44
4 11/06/2016 07:27:41 76.56, 70.06 92.69 11/06/2016 07:27:24 76.56, 70.01 92.69 1.54 17
5 11/06/2016 08:18:23 -76.54,-122.67 87.32 11/06/2016 08:18:19 -76.56,-122.73 87.31 2.09 4
6 11/06/2016 09:09:03 76.54, 44.65 92.69 11/06/2016 09:09:25 76.52, 44.65 92.67 2.43 22
7 11/06/2016 09:59:45 -76.53,-148.08 87.32 11/06/2016 10:00:20 -76.52,-148.08 87.32 0.53 35
8 11/06/2016 10:50:25 76.52, 19.24 92.69 11/06/2016 10:51:27 76.53, 19.12 92.70 3.10 62
9 11/06/2016 11:41:07 -76.51,-173.49 87.32 11/06/2016 11:42:21 -76.48,-173.44 87.33 2.94 74




NCC Satellite Simultaneous Nadir Overpasses (SNOs) Prediction Service
